"Pseudo-MPEC" for ZTF02rv

Created 2019 Feb 19 10:18:12 UT using Find_Orb

Click here for an explanation of pseudo-MPECs

 
 Astrometry: 
     ZTF02rv  C2019 02 09.25254009 25 02.18 +23 31 20.3    ~2A23 19.11RUNEOCPI41
     ZTF02rv  C2019 02 09.25288709 25 00.57 +23 31 04.7    ~2A23 19.11RUNEOCPI41
     ZTF02rv  C2019 02 09.26405709 24 11.73 +23 22 35.2    ~29LX 19.08RUNEOCPI41
     ZTF02rv  C2019 02 09.26440309 24 10.10 +23 22 18.7    ~29LX 19.08RUNEOCPI41
     ZTF02rv  C2019 02 09.26982409 23 46.33 +23 18 06.7    ~29LX 19.19RUNEOCPI41
     ZTF02rv  C2019 02 09.27017109 23 44.80 +23 17 50.7    ~29LX 19.19RUNEOCPI41
     ZTF02rv  C2019 02 09.33552109 18 52.83 +22 25 25.4    ~2A23 18.97RUNEOCPI41
     ZTF02rv  C2019 02 09.33586809 18 51.30 +22 25 08.1    ~2A23 18.97RUNEOCPI41

Station data:
(I41) Palomar Mountain--ZTF  (N33.357340 W116.859780)  US/California. 1.2-m
   f/2.44 Oschin Schmidt + CCD.

Orbital elements:  ZTF02rv
   Perigee 2019 Feb 10.330309 +/- 0.225 TT =  7:55:38 (JD 2458524.830309)
Epoch 2019 Feb  9.0 TT = JDT 2458523.5                        AutoNEOCP
q435981.496 +/- 33434               (J2000 equator)
H   31.6  G 0.15                    Peri.  169.84402 +/- 5.3
                                    Node   299.81540 +/- 0.13
e   2.4983171 +/- 1.11              Incl.  129.37400 +/- 1.0
From 8 observations 2019 Feb. 9 (2.0 hr); mean residual 0".62
Residuals in arcseconds: 
190209 I41  .80+  .41-    190209 I41  1.2-  .74+    190209 I41  .18-  .00     
190209 I41  .54-  .24-    190209 I41  .30+  .75-    190209 I41  .18+  .01+    
190209 I41  .31+  1.3+    190209 I41  .32+  .66-    

Ephemerides (geocentric):
Date (UTC) HH   RA              Dec         delta   r     elong  mag " sig PA
---- -- -- --  -------------   -----------  ------ ------ -----  --- ---- ---
2019 02 19 10  03 38 35.785   -48 16 10.89  .00799 .98662  76.5 24.9 3349 143
2019 02 19 11  03 37 57.045   -48 18 25.63  .00802 .98661  76.3 24.9 3331 144
2019 02 19 12  03 37 18.519   -48 20 38.59  .00805 .98659  76.2 24.9 3315 145
2019 02 19 13  03 36 40.206   -48 22 49.78  .00808 .98658  76.1 24.9 3299 146
2019 02 19 14  03 36 02.102   -48 24 59.23  .00811 .98656  76.0 24.9 3284 147
2019 02 19 15  03 35 24.208   -48 27 06.96  .00814 .98655  75.8 24.9 3270 148
2019 02 19 16  03 34 46.521   -48 29 13.01  .00816 .98653  75.7 25.0 3257 149
2019 02 19 17  03 34 09.040   -48 31 17.38  .00819 .98652  75.6 25.0 3245 150
2019 02 19 18  03 33 31.764   -48 33 20.10  .00822 .98650  75.5 25.0 3233 151
2019 02 19 19  03 32 54.689   -48 35 21.20  .00825 .98649  75.4 25.0 3222 152
2019 02 19 20  03 32 17.816   -48 37 20.70  .00828 .98647  75.2 25.0 3213 153
2019 02 19 21  03 31 41.143   -48 39 18.61  .00831 .98646  75.1 25.0 3204 154
2019 02 19 22  03 31 04.667   -48 41 14.96  .00834 .98644  75.0 25.0 3196 155
2019 02 19 23  03 30 28.388   -48 43 09.77  .00837 .98643  74.9 25.1 3189 156
2019 02 20 00  03 29 52.305   -48 45 03.06  .00840 .98641  74.8 25.1 3182 157
2019 02 20 01  03 29 16.415   -48 46 54.85  .00843 .98640  74.7 25.1 3177 158
2019 02 20 02  03 28 40.716   -48 48 45.15  .00846 .98638  74.6 25.1 3172 159
2019 02 20 03  03 28 05.209   -48 50 33.99  .00849 .98637  74.4 25.1 3168 160
2019 02 20 04  03 27 29.891   -48 52 21.40  .00852 .98635  74.3 25.1 3165 161
2019 02 20 05  03 26 54.761   -48 54 07.37  .00855 .98634  74.2 25.1 3162 162
2019 02 20 06  03 26 19.817   -48 55 51.94  .00858 .98632  74.1 25.2 3161 163
2019 02 20 07  03 25 45.058   -48 57 35.13  .00861 .98631  74.0 25.2 3160 164
2019 02 20 08  03 25 10.483   -48 59 16.94  .00864 .98629  73.9 25.2 3160 165
2019 02 20 09  03 24 36.090   -49 00 57.40  .00867 .98628  73.8 25.2 3161 166
2019 02 20 10  03 24 01.878   -49 02 36.52  .00870 .98626  73.7 25.2 3162 167
2019 02 20 11  03 23 27.846   -49 04 14.33  .00873 .98625  73.6 25.2 3165 168
2019 02 20 12  03 22 53.992   -49 05 50.84  .00876 .98624  73.5 25.2 3168 169
2019 02 20 13  03 22 20.315   -49 07 26.06  .00879 .98622  73.4 25.2 3171 170
2019 02 20 14  03 21 46.813   -49 09 00.01  .00882 .98621  73.3 25.3 3176 171
2019 02 20 15  03 21 13.486   -49 10 32.71  .00885 .98619  73.2 25.3 3181 172
2019 02 20 16  03 20 40.331   -49 12 04.17  .00888 .98618  73.0 25.3 3187 173
2019 02 20 17  03 20 07.349   -49 13 34.41  .00891 .98616  72.9 25.3 3193 174
2019 02 20 18  03 19 34.537   -49 15 03.44  .00894 .98615  72.8 25.3 3200 175
2019 02 20 19  03 19 01.894   -49 16 31.28  .00897 .98613  72.7 25.3 3208 176
2019 02 20 20  03 18 29.419   -49 17 57.95  .00900 .98612  72.6 25.3 3216 177
2019 02 20 21  03 17 57.111   -49 19 23.45  .00903 .98610  72.5 25.3 3226 178
2019 02 20 22  03 17 24.968   -49 20 47.81  .00906 .98609  72.4 25.4 3235 179
2019 02 20 23  03 16 52.990   -49 22 11.03  .00909 .98607  72.3 25.4 3245 179
2019 02 21 00  03 16 21.175   -49 23 33.13  .00912 .98606  72.2 25.4 3256   0
2019 02 21 01  03 15 49.522   -49 24 54.12  .00915 .98604  72.1 25.4 3267   1
2019 02 21 02  03 15 18.030   -49 26 14.02  .00917 .98603  72.0 25.4 3279   2
2019 02 21 03  03 14 46.697   -49 27 32.84  .00920 .98601  71.9 25.4 3292   3
2019 02 21 04  03 14 15.523   -49 28 50.60  .00923 .98600  71.8 25.4 3305   4
2019 02 21 05  03 13 44.506   -49 30 07.30  .00926 .98598  71.7 25.5 3318   5
2019 02 21 06  03 13 13.645   -49 31 22.96  .00929 .98597  71.7 25.5 3332   5
2019 02 21 07  03 12 42.939   -49 32 37.60  .00932 .98595  71.6 25.5 3347   6
2019 02 21 08  03 12 12.387   -49 33 51.21  .00935 .98594  71.5 25.5 3361   7
2019 02 21 09  03 11 41.988   -49 35 03.82  .00938 .98593  71.4 25.5 3377   8